GW0996 Weather Reports


time (UTC)temp
F
wind
direction
speed
knots
gust
knots
rain 1hr
in
rain 24hr
in
rain mn
in
humidity
%
barometer
mb
20260510140703 64 200 0.0 0.9 0.00 0.62 0.62 86 1011.4
20260510140201 64 204 0.0 0.9 0.00 0.62 0.62 83 1011.5
20260510135651 64 234 0.0 0.9 0.01 0.62 0.62 83 1011.5
20260510135149 64 223 0.0 0.9 0.01 0.62 0.62 84 1011.6
20260510134652 65 240 0.0 0.9 0.01 0.62 0.62 86 1011.3
20260510134151 64 244 0.0 0.9 0.01 0.62 0.62 86 1011.7
20260510133648 64 237 0.0 0.9 0.02 0.62 0.62 85 1011.6
20260510133148 64 253 0.0 0.9 0.02 0.62 0.62 88 1011.9
20260510132643 64 266 0.0 0.9 0.02 0.62 0.62 90 1011.8
20260510131643 64 270 0.0 0.0 0.02 0.62 0.62 91 1011.7
20260510131151 64 276 0.0 0.9 0.03 0.62 0.62 93 1011.8
20260510130646 63 279 0.0 1.7 0.03 0.62 0.62 94 1011.8
20260510130145 62 280 0.9 1.7 0.03 0.62 0.62 93 1011.7
20260510125646 62 144 0.0 0.9 0.02 0.61 0.61 92 1011.8
20260510125146 61 144 0.0 0.9 0.03 0.61 0.61 93 1012.0
20260510124644 61 147 0.0 0.0 0.03 0.61 0.61 92 1012.0
20260510124145 61 147 0.0 0.0 0.04 0.61 0.61 93 1012.1
20260510122643 60 148 0.0 0.0 0.09 0.60 0.60 93 1012.5
20260510122159 60 148 0.0 0.0 0.12 0.60 0.60 93 1012.6
20260510121644 60 145 0.0 0.0 0.13 0.60 0.60 94 1012.6
20260510121143 60 145 0.0 0.0 0.14 0.59 0.59 94 1012.7
20260510120646 60 144 0.0 0.9 0.17 0.59 0.59 94 1012.7
20260510120145 60 144 0.0 0.9 0.19 0.59 0.59 94 1012.9
20260510115643 60 144 0.0 0.0 0.21 0.59 0.59 94 1012.7
20260510115143 60 144 0.0 0.0 0.20 0.58 0.58 94 1012.9
20260510114644 59 144 0.0 0.0 0.20 0.58 0.58 94 1012.6
20260510114144 59 144 0.0 0.0 0.20 0.57 0.57 94 1012.8
20260510113644 59 144 0.0 0.0 0.21 0.56 0.56 93 1012.7
20260510112644 59 144 0.0 0.9 0.19 0.51 0.51 93 1013.1
20260510112145 59 144 0.0 0.0 0.16 0.48 0.49 93 1013.1
20260510111142 59 142 0.9 0.9 0.14 0.45 0.45 92 1013.4
20260510110645 60 194 0.0 0.9 0.11 0.42 0.43 93 1013.5
20260510110142 60 197 0.0 0.9 0.09 0.40 0.41 92 1013.2
20260510105132 60 214 0.0 0.9 0.07 0.38 0.38 93 1013.6
20260510104631 60 181 0.0 0.0 0.07 0.38 0.38 93 1013.3
20260510104130 60 172 0.0 0.0 0.07 0.37 0.37 93 1013.4
20260510103121 60 146 0.0 0.9 0.04 0.33 0.33 93 1013.1
20260510102621 60 124 0.0 0.9 0.04 0.32 0.32 92 1013.0
20260510102108 60 112 0.0 0.9 0.05 0.32 0.32 93 1013.1
20260510101609 60 112 0.0 0.9 0.07 0.31 0.31 93 1013.3
20260510101108 59 112 0.0 0.9 0.09 0.31 0.31 93 1013.4
20260510100612 60 312 0.0 0.0 0.11 0.31 0.31 93 1013.0
20260510100056 60 312 0.0 0.9 0.14 0.31 0.31 93 1013.0
20260510095601 60 313 0.0 0.9 0.16 0.31 0.31 93 1012.9
20260510094601 60 312 0.0 0.9 0.20 0.31 0.31 94 1013.0
20260510094059 60 312 0.0 0.0 0.21 0.30 0.31 94 1012.8
20260510093557 59 312 0.0 0.0 0.25 0.30 0.30 94 1012.7
20260510093055 59 313 0.0 0.0 0.24 0.29 0.29 94 1012.6
20260510092049 58 314 0.0 0.9 0.22 0.27 0.27 93 1012.5
20260510091549 58 306 0.0 2.6 0.20 0.24 0.24 93 1012.7
20260510091045 58 306 0.9 3.5 0.18 0.22 0.22 93 1012.7
20260510090545 58 318 0.0 3.5 0.16 0.20 0.20 92 1013.0
20260510090044 58 84 0.0 1.7 0.13 0.17 0.17 92 1013.4
20260510085544 59 133 0.9 1.7 0.11 0.15 0.15 91 1013.7
20260510085044 59 112 0.0 1.7 0.09 0.13 0.13 90 1013.9
20260510084544 60 141 0.0 0.9 0.07 0.11 0.11 89 1013.9
20260510084044 60 122 0.0 0.9 0.04 0.08 0.08 88 1014.0
20260510083543 60 50 0.0 0.0 0.01 0.05 0.05 88 1014.1
20260510083045 61 50 0.0 0.0 0.01 0.05 0.05 87 1014.1
20260510082545 61 50 0.0 0.0 0.01 0.05 0.05 87 1013.9
20260510081545 61 50 0.0 0.0 0.00 0.04 0.04 86 1013.9
20260510080544 61 50 0.0 0.0 0.00 0.04 0.04 86 1013.3
20260510080046 61 50 0.0 0.0 0.00 0.04 0.04 87 1013.4
20260510075544 61 50 0.0 0.9 0.00 0.04 0.04 87 1013.3
20260510075045 61 50 0.0 0.9 0.00 0.04 0.04 86 1013.0
20260510074544 61 42 0.0 0.0 0.00 0.04 0.04 86 1013.0
20260510073544 61 43 0.0 0.0 0.00 0.04 0.04 85 1012.9
20260510073045 61 43 0.0 0.0 0.00 0.04 0.04 84 1013.0
20260510072542 61 44 0.0 0.9 0.00 0.04 0.04 86 1013.0
20260510072043 61 41 0.0 0.9 0.00 0.04 0.04 86 1012.9
20260510071542 61 44 0.0 0.9 0.00 0.04 0.04 85 1013.0
20260510071043 61 44 0.0 0.9 0.00 0.04 0.04 87 1013.1
20260510070543 60 50 0.0 0.9 0.00 0.04 0.04 88 1013.1
20260510070045 60 44 0.0 0.9 0.00 0.04 0.04 90 1013.3
20260510065531 59 44 0.0 0.9 0.00 0.04 0.04 91 1013.3
20260510065031 59 45 0.0 0.9 0.00 0.04 0.04 91 1013.2
20260510064031 59 29 0.0 0.9 0.00 0.04 0.04 89 1013.0
20260510063531 59 32 0.0 0.9 0.00 0.04 0.04 89 1012.9
20260510062032 59 21 0.0 0.9 0.00 0.04 0.04 87 1012.7
20260510061531 59 21 0.0 0.9 0.00 0.04 0.04 88 1013.0
20260510061032 59 21 0.0 0.9 0.00 0.04 0.04 88 1012.8
20260510060532 59 22 0.0 0.9 0.00 0.04 0.04 88 1012.8
20260510060031 59 21 0.0 0.9 0.00 0.04 0.04 88 1013.0
20260510055518 58 11 0.0 1.7 0.00 0.04 0.04 90 1013.1
20260510055019 58 352 0.0 1.7 0.00 0.04 0.04 91 1012.9
20260510054519 58 325 0.0 0.9 0.00 0.04 0.04 92 1013.2
20260510054020 58 325 0.0 0.9 0.00 0.04 0.04 92 1013.1
20260510053510 58 325 0.0 0.0 0.00 0.04 0.04 92 1013.1
20260510053008 58 325 0.0 0.0 0.00 0.04 0.04 92 1013.2
20260510052508 58 326 0.0 0.0 0.00 0.04 0.04 92 1013.1
20260510052008 58 326 0.0 0.0 0.00 0.04 0.04 93 1013.0
20260510051509 58 326 0.0 0.0 0.00 0.04 0.04 92 1013.0
20260510051008 58 326 0.0 0.0 0.00 0.04 0.04 92 1013.0
20260510050508 58 326 0.0 0.0 0.01 0.04 0.04 92 1013.2
20260510045958 58 325 0.0 0.0 0.01 0.04 0.04 92 1013.2
20260510045457 58 325 0.0 0.0 0.02 0.04 0.04 92 1013.1
20260510044457 58 324 0.0 0.9 0.03 0.04 0.04 92 1012.8
20260510043958 58 324 0.0 0.9 0.04 0.04 0.04 92 1012.7
20260510043459 58 325 0.0 0.0 0.04 0.04 0.04 92 1012.7
20260510042958 58 325 0.0 0.0 0.04 0.04 0.04 92 1012.7
20260510042457 58 325 0.0 0.9 0.04 0.04 0.04 92 1012.9
20260510041958 58 326 0.0 0.9 0.04 0.04 0.04 91 1012.7
20260510041456 58 299 0.0 0.9 0.04 0.04 0.04 92 1012.9
20260510040958 58 304 0.0 0.9 0.04 0.04 0.04 92 1013.0
20260510040459 58 7 0.0 0.9 0.03 0.03 0.03 92 1012.9
20260510035958 58 340 0.0 0.9 0.03 0.03 0.03 92 1013.0
20260510035456 58 302 0.0 0.9 0.02 0.02 0.02 92 1013.2
20260510034442 58 303 0.0 0.0 0.01 0.01 0.01 92 1013.2
20260510033945 58 303 0.0 0.0 0.00 0.00 0.00 92 1013.1
20260510033443 58 303 0.0 0.0 0.00 0.00 0.00 92 1013.0
20260510032943 57 303 0.0 0.0 0.00 0.00 0.00 92 1013.1
20260510032443 57 303 0.0 0.0 0.00 0.00 0.00 92 1013.1
20260510031943 57 303 0.0 0.0 0.00 0.00 0.00 92 1013.0
20260510031443 57 303 0.0 0.0 0.00 0.00 0.00 91 1013.0
20260510030943 57 303 0.0 0.0 0.00 0.00 0.00 91 1013.1
20260510025943 57 303 0.0 0.0 0.00 0.00 0.00 91 1013.0
20260510025444 57 303 0.0 0.0 0.00 0.00 0.00 91 1013.2
20260510024943 57 303 0.0 0.0 0.00 0.00 0.00 91 1013.2
20260510024442 57 303 0.0 0.9 0.00 0.00 0.00 91 1013.2
20260510023943 57 303 0.0 1.7 0.00 0.00 0.00 91 1013.2
20260510023444 57 303 0.0 1.7 0.00 0.00 0.00 91 1013.4
20260510022943 56 303 0.0 0.0 0.00 0.00 0.00 91 1013.4
20260510022442 57 303 0.0 0.0 0.00 0.00 0.00 91 1013.6
20260510021943 57 303 0.0 0.0 0.00 0.00 0.00 91 1013.7
20260510021443 57 303 0.0 0.0 0.00 0.00 0.00 91 1013.7
20260510020431 57 303 0.0 0.0 0.00 0.00 0.00 90 1013.9
20260510015416 57 303 0.0 0.0 0.00 0.00 0.00 90 1013.9
20260510014917 57 303 0.0 0.0 0.00 0.00 0.00 90 1013.9
20260510014419 57 303 0.0 0.0 0.00 0.00 0.00 89 1014.0
20260510013406 57 303 0.0 0.0 0.00 0.00 0.00 89 1013.8
20260510012904 57 303 0.0 0.0 0.00 0.00 0.00 88 1013.9
20260510012404 58 303 0.0 0.0 0.00 0.00 0.00 88 1013.7
20260510011908 58 303 0.0 0.0 0.00 0.00 0.00 88 1013.9
20260510011404 58 303 0.0 0.0 0.00 0.00 0.00 88 1013.9
20260510010905 58 303 0.0 0.9 0.00 0.00 0.00 88 1013.8
20260510010406 58 303 0.0 0.9 0.00 0.00 0.00 88 1013.9
20260510005905 57 303 0.9 0.9 0.00 0.00 0.00 88 1013.8
20260510005404 57 303 0.0 0.0 0.00 0.00 0.00 89 1014.0
20260510004904 57 303 0.0 0.0 0.00 0.00 0.00 89 1013.7
20260510004404 57 303 0.0 0.0 0.00 0.00 0.00 89 1013.8
20260510003905 57 303 0.0 0.0 0.00 0.00 0.00 89 1014.0
20260510003406 57 303 0.0 0.0 0.00 0.00 0.00 89 1013.9
20260510002905 57 303 0.0 2.6 0.00 0.00 0.00 88 1013.8
20260510002354 57 303 0.0 2.6 0.00 0.00 0.00 88 1014.0
20260510001853 57 306 0.9 1.7 0.00 0.00 0.00 89 1013.8
20260510000853 57 359 0.0 0.9 0.00 0.00 0.00 89 1014.1
20260510000356 57 359 0.0 0.9 0.00 0.00 0.00 89 1014.0
20260509235852 57 358 0.0 0.9 0.00 0.00 0.00 89 1014.1
20260509235354 57 358 0.0 0.0 0.00 0.00 0.00 87 1014.1
20260509234853 57 359 0.0 0.0 0.00 0.00 0.00 87 1014.3
20260509234356 57 359 0.0 0.0 0.00 0.00 0.00 87 1014.2
20260509233854 58 359 0.0 0.0 0.00 0.00 0.00 87 1014.1
20260509232854 58 359 0.0 0.0 0.00 0.00 0.00 87 1014.5
20260509232356 58 358 0.0 0.0 0.00 0.00 0.00 87 1014.4
20260509231854 57 358 0.0 0.0 0.00 0.00 0.00 87 1014.6
20260509231356 57 359 0.0 0.0 0.00 0.00 0.00 87 1014.4
20260509230856 57 359 0.0 0.0 0.00 0.00 0.00 87 1014.2
20260509230356 57 359 0.0 0.0 0.00 0.00 0.00 87 1014.2
20260509225854 57 355 0.0 0.9 0.00 0.00 0.00 87 1014.3
20260509225355 57 355 0.0 0.9 0.00 0.00 0.00 87 1014.3
20260509224854 57 357 0.0 0.9 0.00 0.00 0.00 87 1014.1
20260509224357 57 357 0.0 0.9 0.00 0.00 0.00 87 1014.1
20260509223356 58 310 0.0 0.9 0.00 0.00 0.00 86 1014.0
20260509222853 58 311 0.0 0.9 0.00 0.00 0.00 86 1014.2
20260509222354 58 311 0.0 0.9 0.00 0.00 0.00 86 1014.1
20260509221853 58 311 0.0 0.9 0.00 0.00 0.00 86 1014.2
20260509221354 58 311 0.0 0.0 0.00 0.00 0.00 85 1014.1
20260509220853 58 312 0.0 0.0 0.00 0.00 0.00 85 1013.9
20260509220355 58 312 0.0 0.9 0.00 0.00 0.00 86 1013.8
20260509215854 58 312 0.0 0.9 0.00 0.00 0.00 86 1013.6
20260509215354 58 312 0.0 0.0 0.00 0.00 0.00 85 1013.5
20260509214853 59 312 0.0 0.0 0.00 0.00 0.00 85 1013.4
20260509214354 59 312 0.0 0.0 0.00 0.00 0.00 85 1013.5
20260509213853 59 312 0.0 0.0 0.00 0.00 0.00 83 1013.8
20260509212852 60 312 0.0 0.0 0.00 0.00 0.00 83 1013.5
20260509212356 60 312 0.0 0.0 0.00 0.00 0.00 82 1013.8
20260509211354 60 312 0.0 0.9 0.00 0.00 0.00 82 1013.9
20260509210853 60 312 0.0 0.9 0.00 0.00 0.00 82 1013.9
20260509210354 60 312 0.0 0.0 0.00 0.00 0.00 81 1013.6
20260509205854 61 312 0.0 0.9 0.00 0.00 0.00 81 1013.8
20260509205355 61 312 0.0 1.7 0.00 0.00 0.00 80 1013.8
20260509204855 61 312 0.9 2.6 0.00 0.00 0.00 80 1013.7
20260509204353 62 312 0.0 2.6 0.00 0.00 0.00 80 1013.9
20260509203852 62 329 0.0 1.7 0.00 0.00 0.00 80 1014.0
20260509203355 62 102 0.0 0.9 0.00 0.00 0.00 79 1014.0
20260509202853 62 126 0.0 0.0 0.00 0.00 0.00 79 1014.0
20260509202352 62 126 0.0 0.0 0.00 0.00 0.00 79 1014.0
20260509201853 62 126 0.0 0.9 0.00 0.00 0.00 79 1014.1
20260509201354 62 126 0.0 0.9 0.00 0.00 0.00 79 1014.0
20260509200851 62 132 0.0 0.9 0.00 0.00 0.00 80 1014.0
20260509200353 62 130 0.0 0.0 0.00 0.00 0.00 81 1014.0
20260509195853 62 130 0.0 0.0 0.00 0.00 0.00 80 1014.1
20260509195353 62 130 0.0 0.0 0.00 0.00 0.00 78 1014.1
20260509194851 62 130 0.0 0.0 0.00 0.00 0.00 78 1014.1
20260509194354 63 130 0.0 0.9 0.00 0.00 0.00 78 1013.8
20260509193852 63 130 0.0 0.9 0.00 0.00 0.00 78 1014.1
20260509193352 63 130 0.0 0.9 0.00 0.00 0.00 80 1014.1
20260509192855 63 130 0.0 0.0 0.00 0.00 0.00 80 1013.8
20260509192354 64 130 0.0 0.0 0.00 0.00 0.00 79 1013.7
20260509191852 64 130 0.0 0.0 0.00 0.00 0.00 76 1013.5
20260509191355 64 130 0.0 0.0 0.00 0.00 0.00 76 1013.5
20260509190352 65 130 0.0 0.0 0.00 0.00 0.00 75 1013.1
20260509185855 65 130 0.0 0.9 0.00 0.00 0.00 77 1013.0
20260509185356 66 130 0.0 0.9 0.00 0.00 0.00 77 1013.1
20260509184853 66 130 0.9 0.9 0.00 0.00 0.00 76 1012.7
20260509184356 66 130 0.0 0.9 0.00 0.00 0.00 76 1012.9
20260509183852 67 130 0.0 0.9 0.00 0.00 0.00 76 1012.6
20260509182854 67 130 0.0 0.9 0.00 0.00 0.00 75 1012.5
20260509181853 67 130 0.0 0.9 0.00 0.00 0.00 74 1012.6
20260509181355 68 129 0.0 0.9 0.00 0.00 0.00 75 1012.5
20260509180852 68 129 0.0 1.7 0.00 0.00 0.00 74 1012.2
20260509180353 68 129 0.0 1.7 0.00 0.00 0.00 73 1012.5
20260509175853 69 122 0.0 0.9 0.00 0.00 0.00 73 1012.6
20260509175353 69 126 0.0 0.9 0.00 0.00 0.00 71 1012.4
20260509174355 71 72 0.0 1.7 0.00 0.00 0.00 67 1012.7
20260509173850 72 338 0.0 1.7 0.00 0.00 0.00 66 1012.8
20260509173352 72 303 0.0 0.0 0.00 0.00 0.00 63 1012.7
20260509172350 72 304 0.0 0.0 0.00 0.00 0.00 64 1013.0
20260509171848 72 297 0.0 0.0 0.00 0.00 0.00 62 1012.8
20260509171348 73 297 0.0 0.0 0.00 0.00 0.00 65 1012.6
20260509170850 72 297 0.0 0.9 0.00 0.00 0.00 62 1012.8
20260509165850 73 296 0.0 1.7 0.00 0.00 0.00 58 1012.5
20260509164348 74 169 0.0 0.9 0.00 0.00 0.00 55 1012.4
20260509163852 74 169 0.0 0.9 0.00 0.00 0.00 53 1012.6
20260509162837 75 161 0.0 0.0 0.00 0.00 0.00 55 1012.5
20260509161838 76 161 0.0 0.0 0.00 0.00 0.00 48 1012.8
20260509161337 76 161 0.0 0.0 0.00 0.00 0.00 47 1012.5
20260509160334 77 161 0.0 0.0 0.00 0.00 0.00 40 1012.9
20260509155839 77 161 0.0 0.0 0.00 0.00 0.00 38 1012.9
20260509155335 77 161 0.0 0.9 0.00 0.00 0.00 38 1012.7
20260509154834 77 154 0.0 0.9 0.00 0.00 0.00 38 1013.0
20260509154338 77 152 0.0 0.0 0.00 0.00 0.00 37 1013.1
20260509153837 77 152 0.0 0.0 0.00 0.00 0.00 38 1013.1
20260509153335 78 152 0.0 0.9 0.00 0.00 0.00 37 1013.2
20260509152836 78 152 0.0 1.7 0.00 0.00 0.00 36 1013.1
20260509152334 77 147 0.9 1.7 0.00 0.00 0.00 37 1013.2
20260509151829 77 313 0.0 0.9 0.00 0.00 0.00 39 1013.2
20260509151330 76 315 0.0 1.7 0.00 0.00 0.00 40 1013.1
20260509150315 77 129 0.0 1.7 0.00 0.00 0.00 37 1013.3
20260509145317 78 133 0.9 2.6 0.00 0.00 0.00 39 1013.2
20260509144805 78 187 0.0 0.9 0.00 0.00 0.00 40 1013.3
20260509144305 78 246 0.0 0.9 0.00 0.00 0.00 39 1013.6
20260509143805 78 303 0.0 0.9 0.00 0.00 0.00 41 1013.6
20260509143253 78 303 0.0 0.0 0.00 0.00 0.00 41 1013.7
20260509142754 77 306 0.0 1.7 0.00 0.00 0.00 42 1013.5
20260509142251 77 306 0.0 2.6 0.00 0.00 0.00 43 1013.8
20260509141757 77 306 0.9 2.6 0.00 0.00 0.00 43 1013.8